SVA333 OEDF-OERK

Flight info

Callsign SVA333
Flight time 0h 51m
Altitude 28000
Route EMUSA Q212 ASNUM
Aircraft A333/H-SDE3GHIJ2J3J5M1RVWXY/LB2D1

Departure

Time 2026-04-24 13:54
Airport King Fahd International Airport (OEDF)

Arrival

Time 2026-04-24 14:45
Airport King Khalid International Airport (OERK)
Time Latitude Longitude Altitude Speed Heading
2026-04-24 13:05 26.46156 49.79450 67 ft 0 kts 265°
2026-04-24 13:41 26.46156 49.79451 67 ft 1 kts 265°
2026-04-24 13:41 26.46157 49.79468 67 ft 2 kts 265°
2026-04-24 13:41 26.46158 49.79484 67 ft 2 kts 265°
2026-04-24 13:41 26.46159 49.79501 67 ft 2 kts 265°
2026-04-24 13:42 26.46160 49.79512 68 ft 1 kts 265°
2026-04-24 13:42 26.46166 49.79525 68 ft 2 kts 194°
2026-04-24 13:42 26.46176 49.79526 68 ft 1 kts 173°
2026-04-24 13:47 26.46169 49.79527 68 ft 4 kts 171°
2026-04-24 13:48 26.46129 49.79535 67 ft 6 kts 169°
2026-04-24 13:48 26.46084 49.79546 67 ft 6 kts 167°
2026-04-24 13:48 26.46044 49.79556 67 ft 5 kts 167°
2026-04-24 13:48 26.45990 49.79563 67 ft 9 kts 189°
2026-04-24 13:49 26.45940 49.79504 66 ft 14 kts 245°
2026-04-24 13:49 26.45885 49.79409 64 ft 13 kts 208°
2026-04-24 13:49 26.45792 49.79411 64 ft 14 kts 167°
2026-04-24 13:49 26.45689 49.79438 64 ft 16 kts 166°
2026-04-24 13:50 26.45633 49.79439 64 ft 5 kts 231°
2026-04-24 13:50 26.45610 49.79394 63 ft 7 kts 248°
2026-04-24 13:50 26.45595 49.79345 63 ft 0 kts 254°
2026-04-24 13:50 26.45595 49.79343 63 ft 0 kts 254°
2026-04-24 13:51 26.45594 49.79341 63 ft 0 kts 254°
2026-04-24 13:53 26.45592 49.79331 63 ft 6 kts 254°
2026-04-24 13:53 26.45574 49.79219 63 ft 21 kts 276°
2026-04-24 13:53 26.45714 49.79107 64 ft 38 kts 341°
2026-04-24 13:53 26.46204 49.78964 68 ft 109 kts 345°
2026-04-24 13:54 26.47155 49.78690 77 ft 169 kts 347°
2026-04-24 13:54 26.48383 49.78291 757 ft 174 kts 343°
2026-04-24 13:54 26.49680 49.77717 1496 ft 195 kts 338°
2026-04-24 13:54 26.51117 49.76885 2494 ft 214 kts 332°
2026-04-24 13:55 26.52520 49.75868 3568 ft 227 kts 325°
2026-04-24 13:55 26.54116 49.74939 4038 ft 267 kts 346°
2026-04-24 13:55 26.56191 49.74904 4010 ft 286 kts 12°
2026-04-24 13:55 26.58295 49.75311 3984 ft 272 kts 357°
2026-04-24 13:56 26.60185 49.74680 4005 ft 268 kts 327°
2026-04-24 13:56 26.61513 49.73112 4028 ft 268 kts 298°
2026-04-24 13:56 26.61989 49.71107 4021 ft 268 kts 274°
2026-04-24 13:56 26.62059 49.68973 4221 ft 278 kts 267°
2026-04-24 13:57 26.61630 49.66912 5026 ft 270 kts 249°
2026-04-24 13:57 26.60824 49.64805 5758 ft 267 kts 245°
2026-04-24 13:57 26.59928 49.62741 6346 ft 269 kts 243°
2026-04-24 13:57 26.58983 49.60643 6967 ft 270 kts 243°
2026-04-24 13:58 26.58087 49.58668 7521 ft 272 kts 243°
2026-04-24 13:58 26.57208 49.56732 8121 ft 272 kts 243°
2026-04-24 13:58 26.56343 49.54831 8665 ft 273 kts 244°
2026-04-24 13:58 26.55366 49.52683 9207 ft 276 kts 244°
2026-04-24 13:59 26.54400 49.50561 9781 ft 276 kts 244°
2026-04-24 13:59 26.53398 49.48359 10208 ft 284 kts 244°
2026-04-24 13:59 26.52377 49.46120 10359 ft 300 kts 244°
2026-04-24 13:59 26.51287 49.43729 10524 ft 315 kts 244°
2026-04-24 14:00 26.50152 49.41242 10677 ft 329 kts 244°
2026-04-24 14:00 26.48994 49.38706 10825 ft 342 kts 244°
2026-04-24 14:00 26.47792 49.36076 11075 ft 351 kts 244°
2026-04-24 14:00 26.46584 49.33432 11479 ft 354 kts 243°
2026-04-24 14:01 26.45365 49.30768 11991 ft 355 kts 243°
2026-04-24 14:01 26.44170 49.28157 12445 ft 356 kts 243°
2026-04-24 14:01 26.42929 49.25447 12851 ft 359 kts 243°
2026-04-24 14:01 26.41784 49.22953 13182 ft 362 kts 243°
2026-04-24 14:02 26.40637 49.20454 13668 ft 361 kts 243°
2026-04-24 14:02 26.39498 49.17970 14066 ft 363 kts 243°
2026-04-24 14:02 26.38335 49.15438 14351 ft 366 kts 243°
2026-04-24 14:02 26.37175 49.12913 14711 ft 368 kts 243°
2026-04-24 14:03 26.36005 49.10366 15084 ft 369 kts 243°
2026-04-24 14:03 26.34828 49.07806 15435 ft 371 kts 243°
2026-04-24 14:03 26.33653 49.05252 15799 ft 372 kts 243°
2026-04-24 14:03 26.32458 49.02660 16175 ft 373 kts 243°
2026-04-24 14:04 26.31281 49.00101 16642 ft 369 kts 243°
2026-04-24 14:04 26.30130 48.97607 17509 ft 355 kts 243°
2026-04-24 14:04 26.29040 48.95246 18401 ft 338 kts 243°
2026-04-24 14:04 26.28004 48.92999 19315 ft 319 kts 243°
2026-04-24 14:05 26.27018 48.90866 19939 ft 309 kts 243°
2026-04-24 14:05 26.26038 48.88741 20260 ft 308 kts 243°
2026-04-24 14:05 26.25042 48.86586 20389 ft 313 kts 243°
2026-04-24 14:05 26.24052 48.84444 20642 ft 313 kts 243°
2026-04-24 14:06 26.23052 48.82287 20983 ft 311 kts 243°
2026-04-24 14:06 26.22074 48.80170 21231 ft 311 kts 243°
2026-04-24 14:06 26.21080 48.78023 21432 ft 313 kts 243°
2026-04-24 14:06 26.20080 48.75864 21703 ft 312 kts 243°
2026-04-24 14:07 26.19081 48.73710 21894 ft 314 kts 244°
2026-04-24 14:07 26.18030 48.71572 22048 ft 313 kts 239°
2026-04-24 14:07 26.16794 48.69508 22040 ft 330 kts 238°
2026-04-24 14:07 26.15505 48.67335 22060 ft 346 kts 238°
2026-04-24 14:08 26.14138 48.65039 22053 ft 363 kts 238°
2026-04-24 14:08 26.12729 48.62669 22051 ft 375 kts 238°
2026-04-24 14:08 26.11288 48.60246 22030 ft 369 kts 238°
2026-04-24 14:08 26.09912 48.57939 22015 ft 353 kts 238°
2026-04-24 14:09 26.08588 48.55716 22013 ft 337 kts 238°
2026-04-24 14:09 26.07321 48.53588 22020 ft 320 kts 238°
2026-04-24 14:09 26.06120 48.51574 22015 ft 305 kts 238°
2026-04-24 14:09 26.04977 48.49655 22023 ft 295 kts 238°
2026-04-24 14:10 26.03835 48.47740 22048 ft 299 kts 238°
2026-04-24 14:10 26.02675 48.45795 22062 ft 301 kts 238°
2026-04-24 14:10 26.01536 48.43887 22020 ft 295 kts 238°
2026-04-24 14:10 26.00406 48.41995 22056 ft 295 kts 238°
2026-04-24 14:11 25.99252 48.40060 22052 ft 299 kts 238°
2026-04-24 14:11 25.98111 48.38150 22047 ft 300 kts 238°
2026-04-24 14:11 25.95801 48.34290 22054 ft 299 kts 238°
2026-04-24 14:12 25.94652 48.32370 22064 ft 300 kts 238°
2026-04-24 14:12 25.93494 48.30436 22053 ft 299 kts 238°
2026-04-24 14:12 25.92358 48.28538 22065 ft 299 kts 238°
2026-04-24 14:12 25.91201 48.26606 22060 ft 298 kts 238°
2026-04-24 14:13 25.90069 48.24670 22055 ft 299 kts 243°
2026-04-24 14:13 25.89216 48.22570 22085 ft 298 kts 247°
2026-04-24 14:13 25.88429 48.20433 22063 ft 300 kts 248°
2026-04-24 14:13 25.87638 48.18293 22069 ft 300 kts 247°
2026-04-24 14:14 25.86849 48.16147 22071 ft 300 kts 248°
2026-04-24 14:14 25.86062 48.14010 22076 ft 304 kts 248°
2026-04-24 14:14 25.84340 48.09340 22099 ft 348 kts 248°
2026-04-24 14:15 25.83421 48.06832 22083 ft 354 kts 248°
2026-04-24 14:15 25.82483 48.04300 22077 ft 354 kts 248°
2026-04-24 14:15 25.81575 48.01830 22056 ft 342 kts 248°
2026-04-24 14:15 25.80690 47.99427 22071 ft 338 kts 248°
2026-04-24 14:16 25.79802 47.96990 22078 ft 340 kts 248°
2026-04-24 14:16 25.78902 47.94548 22081 ft 342 kts 248°
2026-04-24 14:16 25.78014 47.92114 22077 ft 341 kts 248°
2026-04-24 14:17 25.76236 47.87241 22079 ft 342 kts 248°
2026-04-24 14:17 25.75356 47.84824 22076 ft 342 kts 248°
2026-04-24 14:17 25.73567 47.79928 22077 ft 341 kts 247°
2026-04-24 14:18 25.72695 47.77501 22072 ft 341 kts 248°
2026-04-24 14:18 25.71814 47.75071 22073 ft 341 kts 248°
2026-04-24 14:18 25.70934 47.72636 22077 ft 342 kts 248°
2026-04-24 14:18 25.70050 47.70187 22074 ft 342 kts 248°
2026-04-24 14:19 25.69160 47.67731 22074 ft 339 kts 248°
2026-04-24 14:19 25.68292 47.65317 22078 ft 340 kts 248°
2026-04-24 14:19 25.67429 47.62895 22045 ft 340 kts 248°
2026-04-24 14:19 25.66566 47.60490 21780 ft 335 kts 248°
2026-04-24 14:20 25.65696 47.58065 21041 ft 342 kts 248°
2026-04-24 14:20 25.64821 47.55624 20393 ft 344 kts 248°
2026-04-24 14:20 25.63948 47.53182 19752 ft 347 kts 248°
2026-04-24 14:20 25.63068 47.50716 19407 ft 340 kts 248°
2026-04-24 14:21 25.62207 47.48305 19111 ft 333 kts 248°
2026-04-24 14:21 25.61357 47.45923 18611 ft 333 kts 248°
2026-04-24 14:21 25.60512 47.43561 18150 ft 331 kts 248°
2026-04-24 14:21 25.59667 47.41205 17693 ft 329 kts 248°
2026-04-24 14:22 25.58832 47.38869 17275 ft 327 kts 248°
2026-04-24 14:22 25.58003 47.36532 16781 ft 327 kts 248°
2026-04-24 14:22 25.56366 47.31924 16096 ft 318 kts 248°
2026-04-24 14:23 25.55569 47.29673 15777 ft 313 kts 248°
2026-04-24 14:23 25.54773 47.27429 15289 ft 314 kts 248°
2026-04-24 14:23 25.53969 47.25169 15009 ft 314 kts 248°
2026-04-24 14:23 25.53177 47.22932 15063 ft 312 kts 248°
2026-04-24 14:24 25.52390 47.20699 15017 ft 307 kts 248°
2026-04-24 14:24 25.51632 47.18549 14996 ft 293 kts 247°
2026-04-24 14:24 25.50905 47.16475 15039 ft 290 kts 248°
2026-04-24 14:24 25.50173 47.14376 15019 ft 295 kts 248°
2026-04-24 14:25 25.49429 47.12266 15028 ft 293 kts 248°
2026-04-24 14:25 25.48703 47.10198 14958 ft 288 kts 248°
2026-04-24 14:25 25.47978 47.08135 14356 ft 290 kts 248°
2026-04-24 14:25 25.47256 47.06067 13907 ft 285 kts 248°
2026-04-24 14:26 25.46552 47.04035 13416 ft 282 kts 248°
2026-04-24 14:26 25.45856 47.02020 12844 ft 284 kts 248°
2026-04-24 14:26 25.45161 47.00006 12379 ft 280 kts 248°
2026-04-24 14:26 25.44475 46.98006 11879 ft 279 kts 248°
2026-04-24 14:27 25.43784 46.95988 11368 ft 279 kts 248°
2026-04-24 14:27 25.43108 46.94000 10863 ft 277 kts 248°
2026-04-24 14:27 25.42434 46.92003 10363 ft 277 kts 248°
2026-04-24 14:27 25.41764 46.90014 9850 ft 277 kts 248°
2026-04-24 14:28 25.41101 46.88023 9407 ft 275 kts 248°
2026-04-24 14:28 25.40316 46.86122 8899 ft 272 kts 232°
2026-04-24 14:28 25.39066 46.84571 8448 ft 269 kts 231°
2026-04-24 14:28 25.38012 46.82957 8425 ft 251 kts 233°
2026-04-24 14:29 25.37046 46.81436 8389 ft 235 kts 233°
2026-04-24 14:29 25.36131 46.79986 8217 ft 224 kts 233°
2026-04-24 14:29 25.35264 46.78598 7944 ft 215 kts 232°
2026-04-24 14:29 25.34442 46.77261 7695 ft 203 kts 233°
2026-04-24 14:30 25.33916 46.76400 7357 ft 204 kts 233°
2026-04-24 14:30 25.32853 46.74626 6429 ft 214 kts 233°
2026-04-24 14:30 25.32034 46.73247 6070 ft 213 kts 233°
2026-04-24 14:30 25.31227 46.71878 6092 ft 214 kts 232°
2026-04-24 14:31 25.30446 46.70558 6041 ft 214 kts 233°
2026-04-24 14:31 25.29646 46.69194 6054 ft 214 kts 232°
2026-04-24 14:31 25.28824 46.67805 6049 ft 214 kts 233°
2026-04-24 14:31 25.28017 46.66424 6048 ft 213 kts 233°
2026-04-24 14:32 25.27211 46.65054 6045 ft 213 kts 233°
2026-04-24 14:32 25.26352 46.63727 6018 ft 211 kts 219°
2026-04-24 14:32 25.25099 46.63032 6039 ft 201 kts 185°
2026-04-24 14:32 25.23695 46.62844 6073 ft 202 kts 183°
2026-04-24 14:33 25.22298 46.62681 6027 ft 200 kts 183°
2026-04-24 14:33 25.20919 46.62511 6041 ft 198 kts 183°
2026-04-24 14:33 25.19534 46.62327 6036 ft 201 kts 186°
2026-04-24 14:33 25.18145 46.62093 6041 ft 201 kts 185°
2026-04-24 14:34 25.16785 46.61691 6030 ft 204 kts 197°
2026-04-24 14:34 25.15629 46.60757 6037 ft 210 kts 223°
2026-04-24 14:34 25.14628 46.59575 6060 ft 211 kts 223°
2026-04-24 14:34 25.13621 46.58375 6032 ft 210 kts 224°
2026-04-24 14:35 25.12631 46.57198 6039 ft 210 kts 223°
2026-04-24 14:35 25.11642 46.56011 6036 ft 211 kts 223°
2026-04-24 14:35 25.10639 46.54812 6037 ft 211 kts 223°
2026-04-24 14:35 25.09741 46.53528 6027 ft 212 kts 228°
2026-04-24 14:36 25.09143 46.52036 6011 ft 220 kts 260°
2026-04-24 14:36 25.09416 46.50356 6041 ft 225 kts 297°
2026-04-24 14:36 25.10489 46.49121 6041 ft 224 kts 332°
2026-04-24 14:36 25.11910 46.48452 6073 ft 225 kts 341°
2026-04-24 14:37 25.13372 46.47815 6031 ft 224 kts 340°
2026-04-24 14:37 25.14829 46.47184 6037 ft 224 kts 340°
2026-04-24 14:37 25.16272 46.46563 6039 ft 223 kts 341°
2026-04-24 14:37 25.17770 46.46098 5999 ft 221 kts
2026-04-24 14:38 25.19205 46.46532 6039 ft 211 kts 38°
2026-04-24 14:38 25.20136 46.47725 6055 ft 205 kts 67°
2026-04-24 14:38 25.20334 46.49234 6023 ft 196 kts 105°
2026-04-24 14:38 25.19891 46.50640 6075 ft 196 kts 114°
2026-04-24 14:39 25.19384 46.52049 6032 ft 194 kts 113°
2026-04-24 14:39 25.18850 46.53380 5994 ft 190 kts 124°
2026-04-24 14:39 25.17843 46.54295 5937 ft 188 kts 158°
2026-04-24 14:39 25.16629 46.54819 5916 ft 186 kts 155°
2026-04-24 14:40 25.15470 46.55396 5861 ft 176 kts 153°
2026-04-24 14:40 25.14370 46.55994 5771 ft 175 kts 149°
2026-04-24 14:40 25.13325 46.56657 5701 ft 172 kts 149°
2026-04-24 14:40 25.12285 46.57294 5730 ft 171 kts 149°
2026-04-24 14:41 25.11246 46.57935 5705 ft 169 kts 148°
2026-04-24 14:41 25.10229 46.58647 5561 ft 170 kts 143°
2026-04-24 14:41 25.09230 46.59339 5362 ft 170 kts 149°
2026-04-24 14:41 25.08194 46.59993 5118 ft 171 kts 148°
2026-04-24 14:42 25.07185 46.60664 4934 ft 169 kts 147°
2026-04-24 14:42 25.06176 46.61324 4738 ft 170 kts 147°
2026-04-24 14:42 25.05160 46.62006 4419 ft 169 kts 146°
2026-04-24 14:42 25.04170 46.62692 4104 ft 169 kts 145°
2026-04-24 14:43 25.03191 46.63386 3793 ft 166 kts 144°
2026-04-24 14:43 25.02239 46.64101 3498 ft 166 kts 144°
2026-04-24 14:43 25.01266 46.64787 3204 ft 164 kts 146°
2026-04-24 14:43 25.00275 46.65414 2958 ft 163 kts 147°
2026-04-24 14:44 24.99295 46.66048 2734 ft 163 kts 146°
2026-04-24 14:44 24.98326 46.66685 2515 ft 161 kts 147°
2026-04-24 14:44 24.97364 46.67314 2227 ft 162 kts 149°
2026-04-24 14:44 24.96375 46.67941 2057 ft 133 kts 138°
2026-04-24 14:45 24.95925 46.68233 2057 ft 51 kts 152°
2026-04-24 14:45 24.95627 46.68425 2056 ft 33 kts 147°
2026-04-24 14:45 24.95518 46.68553 2056 ft 16 kts 119°
2026-04-24 14:45 24.95498 46.68597 2056 ft 5 kts 112°
2026-04-24 14:46 24.95493 46.68614 2056 ft 0 kts 108°
2026-04-24 14:46 24.95491 46.68618 2056 ft 0 kts 107°
2026-04-24 14:46 24.95490 46.68625 2056 ft 0 kts 102°
2026-04-24 14:46 24.95490 46.68627 2056 ft 0 kts 100°
2026-04-24 14:47 24.95489 46.68628 2056 ft 0 kts 99°
2026-04-24 14:48 24.95489 46.68634 2056 ft 1 kts 97°
2026-04-24 14:48 24.95487 46.68655 2056 ft 4 kts 93°
2026-04-24 14:48 24.95494 46.68714 2056 ft 10 kts 75°
2026-04-24 14:48 24.95506 46.68807 2056 ft 13 kts 101°
2026-04-24 14:49 24.95437 46.68871 2056 ft 15 kts 148°
2026-04-24 14:49 24.95329 46.68945 2056 ft 19 kts 148°
2026-04-24 14:49 24.95215 46.69024 2056 ft 19 kts 149°
2026-04-24 14:49 24.95098 46.69101 2056 ft 19 kts 148°
2026-04-24 14:50 24.94980 46.69173 2056 ft 19 kts 150°
2026-04-24 14:50 24.94865 46.69247 2056 ft 19 kts 149°
2026-04-24 14:50 24.94750 46.69319 2056 ft 18 kts 150°
2026-04-24 14:50 24.94635 46.69391 2056 ft 18 kts 150°
2026-04-24 14:51 24.94577 46.69427 2056 ft 3 kts 150°
2026-04-24 14:51 24.94527 46.69498 2056 ft 16 kts 91°
2026-04-24 14:51 24.94578 46.69640 2056 ft 23 kts 60°
2026-04-24 14:51 24.94670 46.69818 2056 ft 28 kts 61°
2026-04-24 14:52 24.94771 46.70016 2056 ft 29 kts 61°
2026-04-24 14:52 24.94874 46.70217 2056 ft 30 kts 60°
2026-04-24 14:52 24.94980 46.70419 2056 ft 30 kts 60°
2026-04-24 14:52 24.95086 46.70622 2056 ft 30 kts 60°
2026-04-24 14:53 24.95190 46.70819 2055 ft 29 kts 54°
2026-04-24 14:53 24.95300 46.70990 2055 ft 19 kts 47°
2026-04-24 14:53 24.95384 46.70997 2055 ft 11 kts 337°
2026-04-24 14:53 24.95451 46.70964 2055 ft 11 kts 336°
2026-04-24 14:54 24.95502 46.70936 2055 ft 8 kts 328°
2026-04-24 14:54 24.95542 46.70909 2055 ft 7 kts 328°
2026-04-24 14:54 24.95577 46.70885 2055 ft 6 kts 328°
2026-04-24 14:54 24.95609 46.70863 2055 ft 5 kts 328°
2026-04-24 14:55 24.95627 46.70851 2055 ft 5 kts 328°
2026-04-24 14:55 24.95679 46.70815 2055 ft 10 kts 327°
2026-04-24 14:55 24.95751 46.70768 2055 ft 15 kts 329°
2026-04-24 14:55 24.95850 46.70702 2056 ft 19 kts 330°
2026-04-24 14:56 24.95967 46.70628 2056 ft 19 kts 330°
2026-04-24 14:56 24.96078 46.70558 2056 ft 18 kts 330°
2026-04-24 14:56 24.96146 46.70516 2056 ft 17 kts 330°
2026-04-24 14:56 24.96229 46.70464 2056 ft 17 kts 330°
2026-04-24 14:57 24.96331 46.70401 2056 ft 16 kts 330°
2026-04-24 14:57 24.96426 46.70341 2056 ft 15 kts 330°
2026-04-24 14:57 24.96504 46.70281 2056 ft 11 kts 308°
2026-04-24 14:57 24.96574 46.70238 2056 ft 10 kts 340°
2026-04-24 14:58 24.96595 46.70229 2056 ft 2 kts 334°
2026-04-24 14:58 24.96608 46.70207 2056 ft 5 kts 276°
2026-04-24 14:58 24.96606 46.70172 2056 ft 4 kts 249°
2026-04-24 14:58 24.96581 46.70118 2056 ft 10 kts 253°
2026-04-24 14:59 24.96586 46.70035 2056 ft 9 kts 266°
2026-04-24 14:59 24.96580 46.70010 2056 ft 0 kts 249°
2026-04-24 14:59 24.96578 46.70006 2056 ft 0 kts 249°
2026-04-24 14:59 24.96576 46.70000 2056 ft 0 kts 248°
2026-04-24 15:00 24.96576 46.69999 2056 ft 0 kts 248°
2026-04-24 15:00 24.96575 46.69997 2056 ft 0 kts 248°